Weather History for Hurlburt Field, FL

Change the Weather History Date:

Wednesday, January 30, 2013

  Actual Average Record
Temperature  
Mean Temperature 60 °F -  
Max Temperature 73 °F 59 °F 73 °F (2013)
Min Temperature 46 °F 42 °F 19 °F (2014)
Degree Days  
Heating Degree Days 6    
Growing Degree Days 10 (Base 50)    
Moisture  
Dew Point 60 °F    
Average Humidity 95    
Maximum Humidity 100    
Minimum Humidity 75    
Precipitation  
Precipitation 0.13 in - - ()
Sea Level Pressure  
Sea Level Pressure 29.89 in    
Wind  
Wind Speed 15 mph (WSW)    
Max Wind Speed 25 mph    
Max Gust Speed 41 mph    
Visibility 9 miles    
Events Rain    
Averages and records for this station are not official NWS values.
T = Trace of Precipitation, MM = Missing Value Source: NWS Daily Summary

Daily Weather History Graph

Daily Weather History Graph

Search for Another Location

Airport:

Trip Planner

Search our weather history database for the weather conditions in past years. The results will help you decide how hot, cold, wet, or windy it might be!

Date:

Astronomy

Jan. 30, 2013 Rise Set
Actual Time 6:38 AM CST 5:21 PM CST
Civil Twilight 6:13 AM CST 5:47 PM CST
Nautical Twilight 5:44 AM CST 6:15 PM CST
Astronomical Twilight 5:16 AM CST 6:44 PM CST
Moon 8:58 PM CST (1/30) 8:25 AM CST (1/30)
Length of Visible Light 11h 33m
Length of Day
10h 43m
Waning Gibbous, 87% of the Moon is Illuminated
Jan 30
Waning Gibbous
Feb 3
Last Quarter
Feb 10
New
Feb 17
First Quarter
Feb 25
Full

Hourly Weather History & Observations

Time (CST) Temp. Windchill Dew Point Humidity Pressure Visibility Wind Dir Wind Speed Gust Speed Precip Events Conditions
12:19 AM 69.8 °F - 69.8 °F 100% 29.94 in 8.0 mi SSE 16.1 mph - N/A   Overcast
12:30 AM 69.8 °F - 69.8 °F 100% 29.93 in 7.0 mi SSE 16.1 mph - N/A   Light Drizzle
12:55 AM 69.4 °F - 69.4 °F 100% 29.92 in 7.0 mi South 15.0 mph - 0.00 in   Light Drizzle
1:09 AM 69.8 °F - 69.8 °F 100% 29.92 in 7.0 mi SSE 13.8 mph - N/A   Overcast
1:10 AM 69.8 °F - 69.8 °F 100% 29.92 in 7.0 mi SSE 15.0 mph - N/A   Light Drizzle
1:43 AM 69.8 °F - 69.8 °F 100% 29.91 in 7.0 mi SSE 15.0 mph - N/A   Overcast
1:44 AM 69.8 °F - 69.8 °F 100% 29.91 in 8.0 mi SSE 16.1 mph - N/A   Light Drizzle
1:55 AM 69.3 °F - 69.3 °F 100% 29.91 in 8.0 mi South 13.8 mph - 0.00 in   Light Drizzle
2:07 AM 69.8 °F - 69.8 °F 100% 29.91 in 7.0 mi South 12.7 mph - N/A   Overcast
2:18 AM 69.8 °F - 69.8 °F 100% 29.91 in 8.0 mi South 15.0 mph - N/A   Light Drizzle
2:36 AM 69.8 °F - 69.8 °F 100% 29.89 in 8.0 mi South 16.1 mph - N/A   Light Drizzle
2:50 AM 69.8 °F - 69.8 °F 100% 29.89 in 8.0 mi South 16.1 mph - N/A   Light Drizzle
2:55 AM 69.3 °F - 69.3 °F 100% 29.89 in 8.0 mi South 16.1 mph - 0.00 in   Light Drizzle
3:07 AM 69.8 °F - 69.8 °F 100% 29.88 in 9.0 mi South 17.3 mph - N/A   Light Drizzle
3:21 AM 69.8 °F - 69.8 °F 100% 29.88 in 9.0 mi South 13.8 mph - N/A   Overcast
3:35 AM 69.8 °F - 69.8 °F 100% 29.88 in 9.0 mi South 16.1 mph - N/A   Overcast
3:39 AM 69.8 °F - 69.8 °F 100% 29.88 in 9.0 mi South 15.0 mph - N/A   Light Drizzle
3:55 AM 69.6 °F - 69.6 °F 100% 29.87 in 10.0 mi South 15.0 mph - 0.00 in   Light Drizzle
4:55 AM 69.8 °F - 69.8 °F 100% 29.83 in 10.0 mi South 18.4 mph - 0.00 in   Light Drizzle
5:55 AM 70.2 °F - 70.2 °F 100% 29.81 in 10.0 mi South 20.7 mph - 0.00 in   Light Drizzle
5:59 AM 69.8 °F - 69.8 °F 100% 29.81 in 10.0 mi South 20.7 mph - N/A   Light Drizzle
6:09 AM 69.8 °F - 69.8 °F 100% 29.82 in 9.0 mi South 20.7 mph - N/A   Light Drizzle
6:11 AM 69.8 °F - 69.8 °F 100% 29.82 in 9.0 mi South 20.7 mph - N/A   Light Drizzle
6:37 AM 69.8 °F - 69.8 °F 100% 29.81 in 8.0 mi SSE 21.9 mph 27.6 mph N/A   Overcast
6:57 AM 69.8 °F - 69.8 °F 100% 29.81 in 9.0 mi SSE 21.9 mph 29.9 mph N/A   Overcast
8:00 AM 71.6 °F - 71.6 °F 100% 29.81 in 9.0 mi South 25.3 mph 31.1 mph N/A   Overcast
9:00 AM 71.6 °F - 71.6 °F 100% 29.81 in 9.0 mi South 23.0 mph 32.2 mph N/A   Overcast
9:58 AM 73.4 °F - 73.4 °F 100% 29.81 in 10.0 mi South 24.2 mph 29.9 mph N/A   Mostly Cloudy
10:59 AM 73.4 °F - 73.4 °F 100% 29.78 in 9.0 mi South 25.3 mph 32.2 mph N/A   Overcast
11:59 AM 73.4 °F - 73.4 °F 100% 29.76 in 9.0 mi South 19.6 mph 32.2 mph N/A   Overcast
12:55 PM 73.4 °F - 73.4 °F 100% 29.71 in 6.0 mi South 21.9 mph 32.2 mph N/A Rain Light Rain
1:57 PM 73.4 °F - 73.4 °F 100% 29.68 in 9.0 mi South 25.3 mph 36.8 mph N/A   Mostly Cloudy
2:25 PM 73.4 °F - 73.4 °F 100% 29.96 in 0.8 mi WSW 24.2 mph 41.4 mph N/A Rain Heavy Rain
2:26 PM 73.4 °F - 73.4 °F 100% 29.96 in 5.0 mi WSW 15.0 mph 32.2 mph N/A Rain Light Rain
2:36 PM 68.0 °F - 68.0 °F 100% 29.96 in 6.0 mi West 20.7 mph 31.1 mph N/A Rain Light Rain
2:43 PM 68.0 °F - 68.0 °F 100% 29.71 in 10.0 mi WNW 16.1 mph 28.8 mph N/A   Overcast
2:54 PM 64.4 °F - 64.4 °F 100% 29.74 in 10.0 mi West 13.8 mph 31.1 mph N/A Rain Light Rain
2:55 PM 64.6 °F - 64.6 °F 100% 29.75 in 10.0 mi WNW 17.3 mph 31.1 mph 0.11 in Rain Light Rain
3:04 PM 62.6 °F - 62.6 °F 100% 29.75 in 10.0 mi WNW 13.8 mph 24.2 mph N/A Rain Light Rain
3:17 PM 60.8 °F - 60.8 °F 100% 29.77 in 10.0 mi West 11.5 mph 24.2 mph N/A   Light Drizzle
3:19 PM 60.8 °F - 60.8 °F 100% 29.78 in 10.0 mi West 12.7 mph 24.2 mph N/A   Overcast
3:23 PM 60.8 °F - 60.8 °F 100% 29.78 in 10.0 mi WNW 9.2 mph 23.0 mph N/A   Light Drizzle
3:25 PM 60.8 °F - 60.8 °F 100% 29.78 in 10.0 mi WNW 13.8 mph 23.0 mph N/A Rain Light Rain
3:29 PM 59.0 °F - 59.0 °F 100% 29.79 in 10.0 mi West 11.5 mph 23.0 mph N/A Rain Light Rain
3:33 PM 59.0 °F - 59.0 °F 100% 29.79 in 10.0 mi WNW 10.4 mph 23.0 mph N/A Rain Light Rain
3:38 PM 59.0 °F - 59.0 °F 100% 29.79 in 10.0 mi WNW 8.1 mph 18.4 mph N/A Rain Light Rain
3:41 PM 59.0 °F - 59.0 °F 100% 29.78 in 10.0 mi WNW 10.4 mph 21.9 mph N/A Rain Light Rain
3:43 PM 59.0 °F - 59.0 °F 100% 29.78 in 10.0 mi NW 11.5 mph 21.9 mph N/A   Light Drizzle
3:44 PM 59.0 °F - 59.0 °F 100% 29.78 in 10.0 mi WNW 13.8 mph 21.9 mph N/A   Light Drizzle
3:48 PM 57.2 °F - 57.2 °F 100% 29.78 in 10.0 mi WNW 12.7 mph 21.9 mph N/A Rain Light Rain
3:55 PM 56.8 °F - 56.8 °F 100% 29.80 in 10.0 mi WNW 9.2 mph 18.4 mph 0.00 in   Light Drizzle
4:45 PM 55.4 °F - 55.4 °F 100% 29.83 in 10.0 mi West 10.4 mph - N/A   Overcast
4:52 PM 55.4 °F - 55.4 °F 100% 29.83 in 10.0 mi WNW 8.1 mph - N/A   Overcast
4:55 PM 54.9 °F - 54.7 °F 99% 29.84 in 10.0 mi WNW 8.1 mph - 0.01 in   Overcast
5:07 PM 55.4 °F - 55.4 °F 100% 29.83 in 10.0 mi WNW 12.7 mph 18.4 mph N/A   Light Drizzle
5:17 PM 55.4 °F - 55.4 °F 100% 29.82 in 10.0 mi NW 11.5 mph - N/A   Overcast
5:30 PM 53.6 °F - 53.6 °F 100% 29.83 in 10.0 mi WNW 12.7 mph 24.2 mph N/A   Light Drizzle
5:45 PM 53.6 °F - 51.8 °F 94% 29.83 in 10.0 mi WNW 9.2 mph - N/A   Overcast
5:55 PM 53.2 °F - 52.2 °F 96% 29.85 in 10.0 mi WNW 9.2 mph - 0.00 in Rain Light Rain
6:55 PM 54.9 °F - 54.9 °F 100% 29.88 in 10.0 mi WNW 9.2 mph - 0.00 in   Light Drizzle
7:55 PM 56.5 °F - 54.5 °F 93% 29.91 in 10.0 mi WNW 12.7 mph 19.6 mph 0.01 in   Light Drizzle
8:10 PM 57.2 °F - 53.6 °F 88% 29.92 in 10.0 mi WNW 10.4 mph 20.7 mph N/A   Mostly Cloudy
8:34 PM 55.4 °F - 51.8 °F 88% 29.94 in 10.0 mi WNW 15.0 mph 25.3 mph N/A   Light Drizzle
8:46 PM 55.4 °F - 51.8 °F 88% 29.95 in 10.0 mi WNW 12.7 mph 23.0 mph N/A   Partly Cloudy
8:55 PM 54.9 °F - 52.0 °F 90% 29.96 in 10.0 mi NW 9.2 mph - 0.00 in   Partly Cloudy
9:25 PM 53.6 °F - 51.8 °F 94% 29.98 in 10.0 mi NW 16.1 mph 19.6 mph N/A   Light Drizzle
9:55 PM 52.0 °F - 47.7 °F 85% 30.01 in 10.0 mi NW 9.2 mph - 0.00 in   Light Drizzle
9:56 PM 51.8 °F - 48.2 °F 88% 30.01 in 10.0 mi NW 8.1 mph - N/A   Partly Cloudy
9:59 PM 51.8 °F - 48.2 °F 88% 30.01 in 10.0 mi WNW 9.2 mph - N/A   Light Drizzle
10:17 PM 50.0 °F - 46.4 °F 87% 30.02 in 10.0 mi NW 12.7 mph 20.7 mph N/A   Partly Cloudy
10:22 PM 50.0 °F - 46.4 °F 87% 30.03 in 10.0 mi NW 16.1 mph 23.0 mph N/A   Light Drizzle
10:32 PM 50.0 °F - 44.6 °F 82% 30.03 in 10.0 mi NW 12.7 mph 20.7 mph N/A   Clear
10:45 PM 50.0 °F - 44.6 °F 82% 30.05 in 10.0 mi NNW 18.4 mph 27.6 mph N/A   Light Drizzle
10:55 PM 48.7 °F - 42.8 °F 80% 30.05 in 10.0 mi NNW 23.0 mph 31.1 mph 0.00 in   Clear
10:56 PM 48.2 °F - 42.8 °F 82% 30.05 in 10.0 mi NNW 21.9 mph 31.1 mph N/A   Light Drizzle
11:25 PM 46.4 °F 39.8 °F 39.2 °F 76% 30.07 in 10.0 mi NW 16.1 mph 23.0 mph N/A   Clear
11:26 PM 46.4 °F 40.4 °F 39.2 °F 76% 30.07 in 10.0 mi NW 13.8 mph 23.0 mph N/A   Light Drizzle
11:36 PM 46.4 °F 40.4 °F 39.2 °F 76% 30.09 in 10.0 mi NW 13.8 mph - N/A   Clear
11:47 PM 46.4 °F 40.7 °F 39.2 °F 76% 30.09 in 10.0 mi NW 12.7 mph 23.0 mph N/A   Light Drizzle
11:48 PM 46.4 °F 41.5 °F 39.2 °F 76% 30.09 in 10.0 mi NNW 10.4 mph 23.0 mph N/A   Clear
11:50 PM 46.4 °F 40.7 °F 39.2 °F 76% 30.09 in 10.0 mi NW 12.7 mph 23.0 mph N/A   Light Drizzle
11:55 PM 46.0 °F 41.0 °F 38.7 °F 75% 30.09 in 10.0 mi NW 10.4 mph 23.0 mph 0.00 in   Light Drizzle